Weather History for Palm Springs, CA

Change the Weather History Date:

Sunday, June 30, 2013

  Actual Average Record
Temperature  
Mean Temperature 99 °F 87 °F  
Max Temperature 111 °F 102 °F 120 °F (1950)
Min Temperature 86 °F 72 °F 56 °F (1943)
Degree Days  
Heating Degree Days 0 0  
Month to date heating degree days 0 0  
Since 1 June heating degree days 0 0  
Since 1 July heating degree days 760 874  
Cooling Degree Days 34 22  
Month to date cooling degree days 746 338  
Year to date cooling degree days 1788 1097  
Since 1 June cooling degree days 746 338  
Growing Degree Days 48 (Base 50)    
Moisture  
Dew Point 55 °F    
Average Humidity 24    
Maximum Humidity 32    
Minimum Humidity 15    
Precipitation  
Precipitation 0.00 in 0.00 in 0.80 in (1980)
Month to date precipitation 0.00 0.04  
Year to date precipitation 0.97 2.92  
Since 1 July precipitation 2.19 5.72  
Snow  
Snow 0.00 in - - ()
Month to date snowfall 0.0  
Year to date snowfall 0.0  
Since 1 July snowfall 0.0  
Snow Depth 0.00 in    
Sea Level Pressure  
Sea Level Pressure 29.67 in    
Wind  
Wind Speed 5 mph (NE)    
Max Wind Speed 10 mph    
Max Gust Speed 18 mph    
Visibility 10 miles    
Events      
T = Trace of Precipitation, MM = Missing Value Source: NWS Daily Summary

Daily Weather History Graph

Daily Weather History Graph

Search for Another Location

Airport:

Trip Planner

Search our weather history database for the weather conditions in past years. The results will help you decide how hot, cold, wet, or windy it might be!

Date:

Astronomy

Jun. 30, 2013 Rise Set
Actual Time 5:38 AM PDT 8:00 PM PDT
Civil Twilight 5:09 AM PDT 8:29 PM PDT
Nautical Twilight 4:33 AM PDT 9:05 PM PDT
Astronomical Twilight 3:54 AM PDT 9:44 PM PDT
Moon 12:26 AM PDT (6/30) 1:31 PM PDT (6/30)
Length of Visible Light 15h 20m
Length of Day
14h 22m
Last Quarter, 44% of the Moon is Illuminated
Jun 30
Last Quarter
Jul 8
New
Jul 15
First Quarter
Jul 22
Full
Jul 29
Last Quarter

Hourly Weather History & Observations

Time (PDT) Temp. Heat Index Dew Point Humidity Pressure Visibility Wind Dir Wind Speed Gust Speed Precip Events Conditions
12:53 AM 95.0 °F 94.8 °F 60.1 °F 31% 29.70 in 10.0 mi WNW 3.5 mph - N/A   Clear
1:53 AM 91.9 °F 90.8 °F 57.9 °F 32% 29.68 in 10.0 mi North 4.6 mph - N/A   Clear
2:53 AM 90.0 °F 87.9 °F 55.0 °F 30% 29.67 in 10.0 mi NNW 4.6 mph - N/A   Clear
3:53 AM 90.0 °F 87.5 °F 53.1 °F 28% 29.66 in 10.0 mi NNW 6.9 mph - N/A   Clear
4:53 AM 88.0 °F - 51.1 °F 28% 29.66 in 10.0 mi NW 4.6 mph - N/A   Clear
5:53 AM 86.0 °F - 50.0 °F 29% 29.69 in 10.0 mi NW 3.5 mph - N/A   Clear
6:53 AM 87.1 °F - 48.0 °F 26% 29.71 in 10.0 mi NNW 3.5 mph - N/A   Scattered Clouds
7:53 AM 91.9 °F - 52.0 °F 26% 29.73 in 10.0 mi Calm Calm - N/A   Scattered Clouds
8:53 AM 98.1 °F 95.7 °F 53.1 °F 22% 29.74 in 10.0 mi Calm Calm - N/A   Scattered Clouds
9:53 AM 96.1 °F 95.2 °F 57.9 °F 28% 29.73 in 10.0 mi East 8.1 mph - N/A   Clear
10:53 AM 100.0 °F 100.7 °F 60.1 °F 27% 29.72 in 10.0 mi Variable 5.8 mph - N/A   Scattered Clouds
11:53 AM 102.0 °F 102.2 °F 59.0 °F 24% 29.71 in 10.0 mi ENE 5.8 mph - N/A   Clear
12:53 PM 106.0 °F 105.8 °F 57.0 °F 20% 29.69 in 10.0 mi ESE 9.2 mph - N/A   Scattered Clouds
1:53 PM 106.0 °F 106.4 °F 59.0 °F 21% 29.67 in 10.0 mi East 8.1 mph - N/A   Scattered Clouds
2:53 PM 108.0 °F 108.8 °F 59.0 °F 20% 29.64 in 10.0 mi East 8.1 mph - N/A   Clear
3:53 PM 109.9 °F 108.6 °F 55.0 °F 16% 29.61 in 10.0 mi Variable 6.9 mph - N/A   Clear
4:53 PM 111.0 °F 109.3 °F 54.0 °F 15% 29.59 in 10.0 mi East 6.9 mph - N/A   Clear
5:53 PM 111.0 °F - 52.0 °F 14% 29.57 in 10.0 mi East 8.1 mph - N/A   Clear
6:53 PM 108.0 °F 106.6 °F 54.0 °F 17% 29.57 in 10.0 mi SE 6.9 mph - N/A   Clear
7:53 PM 106.0 °F 105.1 °F 55.9 °F 19% 29.60 in 10.0 mi NE 5.8 mph - N/A   Clear
8:53 PM 104.0 °F 102.3 °F 54.0 °F 19% 29.62 in 10.0 mi Calm Calm - N/A   Clear
9:53 PM 102.0 °F 100.1 °F 54.0 °F 20% 29.65 in 10.0 mi NNW 4.6 mph - N/A   Clear
10:53 PM 100.0 °F 97.9 °F 54.0 °F 21% 29.67 in 10.0 mi NNW 12.7 mph - N/A   Clear
11:53 PM 98.1 °F 96.4 °F 55.9 °F 24% 29.68 in 10.0 mi SSE 6.9 mph - N/A   Clear